owner,sensor,date,latitude,longitude,vertical_datum,mass_concentration_of_oxygen_in_sea_water,qcFlag 
SCCF RECON,ioos:station:SCCF:51:1,2009-01-01T00:00:00Z,26.5545,-82.1715,1.66,7.3,1111122 
SCCF RECON,ioos:station:SCCF:51:1,2009-01-01T01:00:00Z,26.5545,-82.1715,1.63,7.22,1111122 
SCCF RECON,ioos:station:SCCF:51:1,2009-01-01T02:00:00Z,26.5545,-82.1715,1.632,7.21,1111122 
SCCF RECON,ioos:station:SCCF:51:1,2009-01-01T03:00:00Z,26.5545,-82.1715,1.66,7.19,1111122 
SCCF RECON,ioos:station:SCCF:51:1,2009-01-01T04:00:00Z,26.5545,-82.1715,1.715,7.16,1111122 
SCCF RECON,ioos:station:SCCF:51:1,2009-01-01T05:00:00Z,26.5545,-82.1715,1.77,6.84,1111122 
SCCF RECON,ioos:station:SCCF:51:1,2009-01-01T06:00:00Z,26.5545,-82.1715,1.833,6.78,1111122 
SCCF RECON,ioos:station:SCCF:51:1,2009-01-01T07:00:00Z,26.5545,-82.1715,1.879,6.75,1111122 
SCCF RECON,ioos:station:SCCF:51:1,2009-01-01T08:00:00Z,26.5545,-82.1715,1.853,6.71,1111122 
SCCF RECON,ioos:station:SCCF:51:1,2009-01-01T09:00:00Z,26.5545,-82.1715,1.8,6.72,1111122 
SCCF RECON,ioos:station:SCCF:51:1,2009-01-01T10:00:00Z,26.5545,-82.1715,1.729,6.79,1111122 
SCCF RECON,ioos:station:SCCF:51:1,2009-01-01T11:00:00Z,26.5545,-82.1715,1.639,6.8,1111122 
SCCF RECON,ioos:station:SCCF:51:1,2009-01-01T12:00:00Z,26.5545,-82.1715,1.546,6.75,1111122 
SCCF RECON,ioos:station:SCCF:51:1,2009-01-01T13:00:00Z,26.5545,-82.1715,1.453,6.69,1111122 
SCCF RECON,ioos:station:SCCF:51:1,2009-01-01T14:00:00Z,26.5545,-82.1715,1.382,6.64,1111122 
SCCF RECON,ioos:station:SCCF:51:1,2009-01-01T15:00:00Z,26.5545,-82.1715,1.339,6.62,1111122 
SCCF RECON,ioos:station:SCCF:51:1,2009-01-01T16:00:00Z,26.5545,-82.1715,1.361,6.91,1111122 
SCCF RECON,ioos:station:SCCF:51:1,2009-01-01T17:00:00Z,26.5545,-82.1715,1.429,7.18,1111122 
SCCF RECON,ioos:station:SCCF:51:1,2009-01-01T18:00:00Z,26.5545,-82.1715,1.537,7.29,1111122 
SCCF RECON,ioos:station:SCCF:51:1,2009-01-01T19:00:00Z,26.5545,-82.1715,1.645,7.17,1111122 
SCCF RECON,ioos:station:SCCF:51:1,2009-01-01T20:00:00Z,26.5545,-82.1715,1.734,7.47,1111122 
SCCF RECON,ioos:station:SCCF:51:1,2009-01-01T21:00:00Z,26.5545,-82.1715,1.81,7.55,1111122 
SCCF RECON,ioos:station:SCCF:51:1,2009-01-01T22:00:00Z,26.5545,-82.1715,1.86,7.59,1111122 
SCCF RECON,ioos:station:SCCF:51:1,2009-01-01T23:00:00Z,26.5545,-82.1715,1.842,7.48,1111122 
SCCF RECON,ioos:station:SCCF:51:1,2009-01-02T00:00:00Z,26.5545,-82.1715,1.803,7.57,1111122 
SCCF RECON,ioos:station:SCCF:51:1,2009-01-02T01:00:00Z,26.5545,-82.1715,1.739,7.29,1111122 
SCCF RECON,ioos:station:SCCF:51:1,2009-01-02T02:00:00Z,26.5545,-82.1715,1.681,7.12,1111122 
SCCF RECON,ioos:station:SCCF:51:1,2009-01-02T03:00:00Z,26.5545,-82.1715,1.635,6.89,1111122 
SCCF RECON,ioos:station:SCCF:51:1,2009-01-02T04:00:00Z,26.5545,-82.1715,1.622,6.81,1111122 
SCCF RECON,ioos:station:SCCF:51:1,2009-01-02T05:00:00Z,26.5545,-82.1715,1.673,6.8,1111122 
SCCF RECON,ioos:station:SCCF:51:1,2009-01-02T06:00:00Z,26.5545,-82.1715,1.732,6.92,1111122 
SCCF RECON,ioos:station:SCCF:51:1,2009-01-02T07:00:00Z,26.5545,-82.1715,1.821,6.98,1111122 
SCCF RECON,ioos:station:SCCF:51:1,2009-01-02T08:00:00Z,26.5545,-82.1715,1.882,6.89,1111122 
SCCF RECON,ioos:station:SCCF:51:1,2009-01-02T09:00:00Z,26.5545,-82.1715,1.897,6.77,1111122 
SCCF RECON,ioos:station:SCCF:51:1,2009-01-02T10:00:00Z,26.5545,-82.1715,1.874,6.74,1111122 
SCCF RECON,ioos:station:SCCF:51:1,2009-01-02T11:00:00Z,26.5545,-82.1715,1.826,6.67,1111122 
SCCF RECON,ioos:station:SCCF:51:1,2009-01-02T12:00:00Z,26.5545,-82.1715,1.757,6.58,1111122 
SCCF RECON,ioos:station:SCCF:51:1,2009-01-02T13:00:00Z,26.5545,-82.1715,1.681,6.6,1111122 
SCCF RECON,ioos:station:SCCF:51:1,2009-01-02T14:00:00Z,26.5545,-82.1715,1.608,6.75,1111122 
SCCF RECON,ioos:station:SCCF:51:1,2009-01-02T15:00:00Z,26.5545,-82.1715,1.554,6.58,1111122 
SCCF RECON,ioos:station:SCCF:51:1,2009-01-02T16:00:00Z,26.5545,-82.1715,1.521,6.65,1111122 
SCCF RECON,ioos:station:SCCF:51:1,2009-01-02T17:00:00Z,26.5545,-82.1715,1.544,6.96,1111122 
SCCF RECON,ioos:station:SCCF:51:1,2009-01-02T18:00:00Z,26.5545,-82.1715,1.619,7.12,1111122 
SCCF RECON,ioos:station:SCCF:51:1,2009-01-02T19:00:00Z,26.5545,-82.1715,1.718,7.05,1111122 
SCCF RECON,ioos:station:SCCF:51:1,2009-01-02T20:00:00Z,26.5545,-82.1715,1.81,7.35,1111122 
SCCF RECON,ioos:station:SCCF:51:1,2009-01-02T21:00:00Z,26.5545,-82.1715,1.865,7.16,1111122 
SCCF RECON,ioos:station:SCCF:51:1,2009-01-02T22:00:00Z,26.5545,-82.1715,1.887,6.97,1111122 
SCCF RECON,ioos:station:SCCF:51:1,2009-01-02T23:00:00Z,26.5545,-82.1715,1.867,7.2,1111122 
SCCF RECON,ioos:station:SCCF:51:1,2009-01-03T00:00:00Z,26.5545,-82.1715,1.82,7.05,1111122 
SCCF RECON,ioos:station:SCCF:51:1,2009-01-03T01:00:00Z,26.5545,-82.1715,1.768,7.35,1111122 
SCCF RECON,ioos:station:SCCF:51:1,2009-01-03T02:00:00Z,26.5545,-82.1715,1.71,7.3,1111122 
SCCF RECON,ioos:station:SCCF:51:1,2009-01-03T03:00:00Z,26.5545,-82.1715,1.65,6.97,1111122 
SCCF RECON,ioos:station:SCCF:51:1,2009-01-03T04:00:00Z,26.5545,-82.1715,1.603,6.85,1111122 
SCCF RECON,ioos:station:SCCF:51:1,2009-01-03T05:00:00Z,26.5545,-82.1715,1.6,6.5,1111122 
SCCF RECON,ioos:station:SCCF:51:1,2009-01-03T06:00:00Z,26.5545,-82.1715,1.639,7.05,1111122 
SCCF RECON,ioos:station:SCCF:51:1,2009-01-03T07:00:00Z,26.5545,-82.1715,1.71,7.07,1111122 
SCCF RECON,ioos:station:SCCF:51:1,2009-01-03T08:00:00Z,26.5545,-82.1715,1.783,6.69,1111122 
SCCF RECON,ioos:station:SCCF:51:1,2009-01-03T09:00:00Z,26.5545,-82.1715,1.833,6.64,1111122 
SCCF RECON,ioos:station:SCCF:51:1,2009-01-03T10:00:00Z,26.5545,-82.1715,1.849,6.36,1111122 
SCCF RECON,ioos:station:SCCF:51:1,2009-01-03T11:00:00Z,26.5545,-82.1715,1.815,6.52,1111122 
SCCF RECON,ioos:station:SCCF:51:1,2009-01-03T12:00:00Z,26.5545,-82.1715,1.77,6.39,1111122 
SCCF RECON,ioos:station:SCCF:51:1,2009-01-03T13:00:00Z,26.5545,-82.1715,1.72,6.28,1111122 
SCCF RECON,ioos:station:SCCF:51:1,2009-01-03T14:00:00Z,26.5545,-82.1715,1.669,6.29,1111122 
SCCF RECON,ioos:station:SCCF:51:1,2009-01-03T15:00:00Z,26.5545,-82.1715,1.618,6.3,1111122 
SCCF RECON,ioos:station:SCCF:51:1,2009-01-03T16:00:00Z,26.5545,-82.1715,1.575,6.61,1111122 
SCCF RECON,ioos:station:SCCF:51:1,2009-01-03T17:00:00Z,26.5545,-82.1715,1.59,6.77,1111122 
SCCF RECON,ioos:station:SCCF:51:1,2009-01-03T18:00:00Z,26.5545,-82.1715,1.631,6.96,1111122 
SCCF RECON,ioos:station:SCCF:51:1,2009-01-03T19:00:00Z,26.5545,-82.1715,1.709,7.33,1111122 
SCCF RECON,ioos:station:SCCF:51:1,2009-01-03T20:00:00Z,26.5545,-82.1715,1.808,7.23,1111122 
SCCF RECON,ioos:station:SCCF:51:1,2009-01-03T21:00:00Z,26.5545,-82.1715,1.893,7.26,1111122 
SCCF RECON,ioos:station:SCCF:51:1,2009-01-03T22:00:00Z,26.5545,-82.1715,1.943,7.23,1111122 
SCCF RECON,ioos:station:SCCF:51:1,2009-01-03T23:00:00Z,26.5545,-82.1715,1.954,7.15,1111122 
SCCF RECON,ioos:station:SCCF:51:1,2009-01-04T00:00:00Z,26.5545,-82.1715,1.92,7.46,1111122 
SCCF RECON,ioos:station:SCCF:51:1,2009-01-04T01:00:00Z,26.5545,-82.1715,1.86,6.77,1111122 
SCCF RECON,ioos:station:SCCF:51:1,2009-01-04T02:00:00Z,26.5545,-82.1715,1.78,6.66,1111122 
SCCF RECON,ioos:station:SCCF:51:1,2009-01-04T03:00:00Z,26.5545,-82.1715,1.705,6.87,1111122 
SCCF RECON,ioos:station:SCCF:51:1,2009-01-04T04:00:00Z,26.5545,-82.1715,1.635,7.11,1111122 
SCCF RECON,ioos:station:SCCF:51:1,2009-01-04T05:00:00Z,26.5545,-82.1715,1.572,7.29,1111122 
SCCF RECON,ioos:station:SCCF:51:1,2009-01-04T06:00:00Z,26.5545,-82.1715,1.534,7.2,1111122 
SCCF RECON,ioos:station:SCCF:51:1,2009-01-04T07:00:00Z,26.5545,-82.1715,1.54,7.17,1111122 
SCCF RECON,ioos:station:SCCF:51:1,2009-01-04T08:00:00Z,26.5545,-82.1715,1.599,7.15,1111122 
SCCF RECON,ioos:station:SCCF:51:1,2009-01-04T09:00:00Z,26.5545,-82.1715,1.66,7.12,1111122 
SCCF RECON,ioos:station:SCCF:51:1,2009-01-04T10:00:00Z,26.5545,-82.1715,1.732,6.49,1111122 
SCCF RECON,ioos:station:SCCF:51:1,2009-01-04T11:00:00Z,26.5545,-82.1715,1.77,6.74,1111122 
SCCF RECON,ioos:station:SCCF:51:1,2009-01-04T12:00:00Z,26.5545,-82.1715,1.759,6.32,1111122 
SCCF RECON,ioos:station:SCCF:51:1,2009-01-04T13:00:00Z,26.5545,-82.1715,1.739,6.29,1111122 
SCCF RECON,ioos:station:SCCF:51:1,2009-01-04T14:00:00Z,26.5545,-82.1715,1.7,6.59,1111122 
SCCF RECON,ioos:station:SCCF:51:1,2009-01-04T15:00:00Z,26.5545,-82.1715,1.66,6.52,1111122 
SCCF RECON,ioos:station:SCCF:51:1,2009-01-04T16:00:00Z,26.5545,-82.1715,1.628,6.72,1111122 
SCCF RECON,ioos:station:SCCF:51:1,2009-01-04T17:00:00Z,26.5545,-82.1715,1.623,6.76,1111122 
SCCF RECON,ioos:station:SCCF:51:1,2009-01-04T18:00:00Z,26.5545,-82.1715,1.644,6.97,1111122 
SCCF RECON,ioos:station:SCCF:51:1,2009-01-04T19:00:00Z,26.5545,-82.1715,1.685,7.19,1111122 
SCCF RECON,ioos:station:SCCF:51:1,2009-01-04T20:00:00Z,26.5545,-82.1715,1.75,7.28,1111122 
SCCF RECON,ioos:station:SCCF:51:1,2009-01-04T21:00:00Z,26.5545,-82.1715,1.839,7.44,1111122 
SCCF RECON,ioos:station:SCCF:51:1,2009-01-04T22:00:00Z,26.5545,-82.1715,1.922,7.19,1111122 
SCCF RECON,ioos:station:SCCF:51:1,2009-01-04T23:00:00Z,26.5545,-82.1715,1.959,7.28,1111122 
SCCF RECON,ioos:station:SCCF:51:1,2009-01-05T00:00:00Z,26.5545,-82.1715,1.94,7.27,1111122 
SCCF RECON,ioos:station:SCCF:51:1,2009-01-05T01:00:00Z,26.5545,-82.1715,1.875,7.55,1111122 
SCCF RECON,ioos:station:SCCF:51:1,2009-01-05T02:00:00Z,26.5545,-82.1715,1.802,7.42,1111122 
SCCF RECON,ioos:station:SCCF:51:1,2009-01-05T03:00:00Z,26.5545,-82.1715,1.701,7.35,1111122 
SCCF RECON,ioos:station:SCCF:51:1,2009-01-05T04:00:00Z,26.5545,-82.1715,1.604,7.21,1111122 
SCCF RECON,ioos:station:SCCF:51:1,2009-01-05T05:00:00Z,26.5545,-82.1715,1.52,7.1,1111122 
SCCF RECON,ioos:station:SCCF:51:1,2009-01-05T06:00:00Z,26.5545,-82.1715,1.443,7.0,1111122 
SCCF RECON,ioos:station:SCCF:51:1,2009-01-05T07:00:00Z,26.5545,-82.1715,1.386,6.92,1111122 
SCCF RECON,ioos:station:SCCF:51:1,2009-01-05T08:00:00Z,26.5545,-82.1715,1.383,6.89,1111122 
SCCF RECON,ioos:station:SCCF:51:1,2009-01-05T09:00:00Z,26.5545,-82.1715,1.445,6.92,1111122 
SCCF RECON,ioos:station:SCCF:51:1,2009-01-05T10:00:00Z,26.5545,-82.1715,1.52,6.89,1111122 
SCCF RECON,ioos:station:SCCF:51:1,2009-01-05T11:00:00Z,26.5545,-82.1715,1.608,6.53,1111122 
SCCF RECON,ioos:station:SCCF:51:1,2009-01-05T12:00:00Z,26.5545,-82.1715,1.67,6.63,1111122 
SCCF RECON,ioos:station:SCCF:51:1,2009-01-05T13:00:00Z,26.5545,-82.1715,1.7,6.5,1111122 
SCCF RECON,ioos:station:SCCF:51:1,2009-01-05T14:00:00Z,26.5545,-82.1715,1.701,6.45,1111122 
SCCF RECON,ioos:station:SCCF:51:1,2009-01-05T15:00:00Z,26.5545,-82.1715,1.693,6.57,1111122 
SCCF RECON,ioos:station:SCCF:51:1,2009-01-05T16:00:00Z,26.5545,-82.1715,1.683,6.64,1111122 
SCCF RECON,ioos:station:SCCF:51:1,2009-01-05T17:00:00Z,26.5545,-82.1715,1.679,6.77,1111122 
SCCF RECON,ioos:station:SCCF:51:1,2009-01-05T18:00:00Z,26.5545,-82.1715,1.681,6.86,1111122 
SCCF RECON,ioos:station:SCCF:51:1,2009-01-05T19:00:00Z,26.5545,-82.1715,1.709,7.02,1111122 
SCCF RECON,ioos:station:SCCF:51:1,2009-01-05T20:00:00Z,26.5545,-82.1715,1.767,7.13,1111122 
SCCF RECON,ioos:station:SCCF:51:1,2009-01-05T21:00:00Z,26.5545,-82.1715,1.838,7.49,1111122 
SCCF RECON,ioos:station:SCCF:51:1,2009-01-05T22:00:00Z,26.5545,-82.1715,1.909,7.19,1111122 
SCCF RECON,ioos:station:SCCF:51:1,2009-01-05T23:00:00Z,26.5545,-82.1715,1.97,7.16,1111122 
SCCF RECON,ioos:station:SCCF:51:1,2009-01-06T00:00:00Z,26.5545,-82.1715,1.99,7.22,1111122 
SCCF RECON,ioos:station:SCCF:51:1,2009-01-06T01:00:00Z,26.5545,-82.1715,1.96,7.18,1111122 
SCCF RECON,ioos:station:SCCF:51:1,2009-01-06T02:00:00Z,26.5545,-82.1715,1.9,7.41,1111122 
SCCF RECON,ioos:station:SCCF:51:1,2009-01-06T03:00:00Z,26.5545,-82.1715,1.82,6.72,1111122 
SCCF RECON,ioos:station:SCCF:51:1,2009-01-06T04:00:00Z,26.5545,-82.1715,1.71,7.21,1111122 
SCCF RECON,ioos:station:SCCF:51:1,2009-01-06T05:00:00Z,26.5545,-82.1715,1.61,7.15,1111122 
SCCF RECON,ioos:station:SCCF:51:1,2009-01-06T06:00:00Z,26.5545,-82.1715,1.498,7.08,1111122 
SCCF RECON,ioos:station:SCCF:51:1,2009-01-06T07:00:00Z,26.5545,-82.1715,1.4,7.04,1111122 
SCCF RECON,ioos:station:SCCF:51:1,2009-01-06T08:00:00Z,26.5545,-82.1715,1.32,6.95,1111122 
SCCF RECON,ioos:station:SCCF:51:1,2009-01-06T09:00:00Z,26.5545,-82.1715,1.32,7.07,1111122 
SCCF RECON,ioos:station:SCCF:51:1,2009-01-06T10:00:00Z,26.5545,-82.1715,1.38,7.11,1111122 
SCCF RECON,ioos:station:SCCF:51:1,2009-01-06T11:00:00Z,26.5545,-82.1715,1.479,6.93,1111122 
SCCF RECON,ioos:station:SCCF:51:1,2009-01-06T12:00:00Z,26.5545,-82.1715,1.578,6.53,1111122 
SCCF RECON,ioos:station:SCCF:51:1,2009-01-06T13:00:00Z,26.5545,-82.1715,1.652,6.61,1111122 
SCCF RECON,ioos:station:SCCF:51:1,2009-01-06T14:00:00Z,26.5545,-82.1715,1.703,6.49,1111122 
SCCF RECON,ioos:station:SCCF:51:1,2009-01-06T15:00:00Z,26.5545,-82.1715,1.732,6.69,1111122 
SCCF RECON,ioos:station:SCCF:51:1,2009-01-06T16:00:00Z,26.5545,-82.1715,1.748,6.91,1111122 
SCCF RECON,ioos:station:SCCF:51:1,2009-01-06T17:00:00Z,26.5545,-82.1715,1.739,6.99,1111122 
SCCF RECON,ioos:station:SCCF:51:1,2009-01-06T18:00:00Z,26.5545,-82.1715,1.721,7.1,1111122 
SCCF RECON,ioos:station:SCCF:51:1,2009-01-06T19:00:00Z,26.5545,-82.1715,1.724,7.14,1111122 
SCCF RECON,ioos:station:SCCF:51:1,2009-01-06T20:00:00Z,26.5545,-82.1715,1.752,7.29,1111122 
SCCF RECON,ioos:station:SCCF:51:1,2009-01-06T21:00:00Z,26.5545,-82.1715,1.81,7.26,1111122 
SCCF RECON,ioos:station:SCCF:51:1,2009-01-06T22:00:00Z,26.5545,-82.1715,1.889,7.38,1111122 
SCCF RECON,ioos:station:SCCF:51:1,2009-01-06T23:00:00Z,26.5545,-82.1715,1.964,7.35,1111122 
SCCF RECON,ioos:station:SCCF:51:1,2009-01-07T00:00:00Z,26.5545,-82.1715,1.999,7.3,1111122 
SCCF RECON,ioos:station:SCCF:51:1,2009-01-07T01:00:00Z,26.5545,-82.1715,2.017,6.9,1111122 
SCCF RECON,ioos:station:SCCF:51:1,2009-01-07T02:00:00Z,26.5545,-82.1715,1.991,6.83,1111122 
SCCF RECON,ioos:station:SCCF:51:1,2009-01-07T03:00:00Z,26.5545,-82.1715,1.93,7.09,1111122 
SCCF RECON,ioos:station:SCCF:51:1,2009-01-07T04:00:00Z,26.5545,-82.1715,1.847,7.06,1111122 
SCCF RECON,ioos:station:SCCF:51:1,2009-01-07T05:00:00Z,26.5545,-82.1715,1.742,6.95,1111122 
SCCF RECON,ioos:station:SCCF:51:1,2009-01-07T06:00:00Z,26.5545,-82.1715,1.617,6.77,1111122 
SCCF RECON,ioos:station:SCCF:51:1,2009-01-07T07:00:00Z,26.5545,-82.1715,1.496,6.38,1111122 
SCCF RECON,ioos:station:SCCF:51:1,2009-01-07T08:00:00Z,26.5545,-82.1715,1.379,6.42,1111122 
SCCF RECON,ioos:station:SCCF:51:1,2009-01-07T09:00:00Z,26.5545,-82.1715,1.286,6.47,1111122 
SCCF RECON,ioos:station:SCCF:51:1,2009-01-07T10:00:00Z,26.5545,-82.1715,1.281,6.56,1111122 
SCCF RECON,ioos:station:SCCF:51:1,2009-01-07T11:00:00Z,26.5545,-82.1715,1.349,6.68,1111122 
SCCF RECON,ioos:station:SCCF:51:1,2009-01-07T12:00:00Z,26.5545,-82.1715,1.448,6.32,1111122 
SCCF RECON,ioos:station:SCCF:51:1,2009-01-07T13:00:00Z,26.5545,-82.1715,1.568,6.34,1111122 
SCCF RECON,ioos:station:SCCF:51:1,2009-01-07T14:00:00Z,26.5545,-82.1715,1.661,6.36,1111122 
SCCF RECON,ioos:station:SCCF:51:1,2009-01-07T15:00:00Z,26.5545,-82.1715,1.746,6.58,1111122 
SCCF RECON,ioos:station:SCCF:51:1,2009-01-07T16:00:00Z,26.5545,-82.1715,1.793,6.92,1111122 
SCCF RECON,ioos:station:SCCF:51:1,2009-01-07T17:00:00Z,26.5545,-82.1715,1.805,6.97,1111122 
SCCF RECON,ioos:station:SCCF:51:1,2009-01-07T18:00:00Z,26.5545,-82.1715,1.777,7.04,1111122 
SCCF RECON,ioos:station:SCCF:51:1,2009-01-07T19:00:00Z,26.5545,-82.1715,1.809,7.15,1111122 
SCCF RECON,ioos:station:SCCF:51:1,2009-01-07T20:00:00Z,26.5545,-82.1715,1.756,7.16,1111122 
SCCF RECON,ioos:station:SCCF:51:1,2009-01-07T21:00:00Z,26.5545,-82.1715,1.777,7.17,1111122 
SCCF RECON,ioos:station:SCCF:51:1,2009-01-07T22:00:00Z,26.5545,-82.1715,1.785,7.15,1111122 
SCCF RECON,ioos:station:SCCF:51:1,2009-01-07T23:00:00Z,26.5545,-82.1715,1.808,7.13,1111122 
SCCF RECON,ioos:station:SCCF:51:1,2009-01-08T00:00:00Z,26.5545,-82.1715,1.854,7.1,1111122 
SCCF RECON,ioos:station:SCCF:51:1,2009-01-08T01:00:00Z,26.5545,-82.1715,1.861,7.01,1111122 
SCCF RECON,ioos:station:SCCF:51:1,2009-01-08T02:00:00Z,26.5545,-82.1715,1.886,7.08,1111122 
SCCF RECON,ioos:station:SCCF:51:1,2009-01-08T03:00:00Z,26.5545,-82.1715,1.873,6.99,1111122 
SCCF RECON,ioos:station:SCCF:51:1,2009-01-08T04:00:00Z,26.5545,-82.1715,1.825,6.88,1111122 
SCCF RECON,ioos:station:SCCF:51:1,2009-01-08T05:00:00Z,26.5545,-82.1715,1.731,6.86,1111122 
SCCF RECON,ioos:station:SCCF:51:1,2009-01-08T06:00:00Z,26.5545,-82.1715,1.61,6.83,1111122 
SCCF RECON,ioos:station:SCCF:51:1,2009-01-08T07:00:00Z,26.5545,-82.1715,1.478,6.83,1111122 
SCCF RECON,ioos:station:SCCF:51:1,2009-01-08T08:00:00Z,26.5545,-82.1715,1.349,6.76,1111122 
SCCF RECON,ioos:station:SCCF:51:1,2009-01-08T09:00:00Z,26.5545,-82.1715,1.24,6.58,1111122 
SCCF RECON,ioos:station:SCCF:51:1,2009-01-08T10:00:00Z,26.5545,-82.1715,1.151,6.31,1111122 
SCCF RECON,ioos:station:SCCF:51:1,2009-01-08T11:00:00Z,26.5545,-82.1715,1.148,6.22,1111122 
SCCF RECON,ioos:station:SCCF:51:1,2009-01-08T12:00:00Z,26.5545,-82.1715,1.225,6.35,1111122 
SCCF RECON,ioos:station:SCCF:51:1,2009-01-08T13:00:00Z,26.5545,-82.1715,1.321,6.48,1111122 
SCCF RECON,ioos:station:SCCF:51:1,2009-01-08T14:00:00Z,26.5545,-82.1715,1.471,6.55,1111122 
SCCF RECON,ioos:station:SCCF:51:1,2009-01-08T15:00:00Z,26.5545,-82.1715,1.609,6.48,1111122 
SCCF RECON,ioos:station:SCCF:51:1,2009-01-08T16:00:00Z,26.5545,-82.1715,1.709,6.51,1111122 
SCCF RECON,ioos:station:SCCF:51:1,2009-01-08T17:00:00Z,26.5545,-82.1715,1.768,6.62,1111122 
SCCF RECON,ioos:station:SCCF:51:1,2009-01-08T18:00:00Z,26.5545,-82.1715,1.776,6.73,1111122 
SCCF RECON,ioos:station:SCCF:51:1,2009-01-08T19:00:00Z,26.5545,-82.1715,1.729,6.96,1111122 
SCCF RECON,ioos:station:SCCF:51:1,2009-01-08T20:00:00Z,26.5545,-82.1715,1.692,7.03,1111122 
SCCF RECON,ioos:station:SCCF:51:1,2009-01-08T21:00:00Z,26.5545,-82.1715,1.71,7.14,1111122 
SCCF RECON,ioos:station:SCCF:51:1,2009-01-08T22:00:00Z,26.5545,-82.1715,1.772,7.15,1111122 
SCCF RECON,ioos:station:SCCF:51:1,2009-01-08T23:00:00Z,26.5545,-82.1715,1.832,7.3,1111122 
SCCF RECON,ioos:station:SCCF:51:1,2009-01-09T00:00:00Z,26.5545,-82.1715,1.91,6.89,1111122 
SCCF RECON,ioos:station:SCCF:51:1,2009-01-09T01:00:00Z,26.5545,-82.1715,1.961,6.88,1111122 
SCCF RECON,ioos:station:SCCF:51:1,2009-01-09T02:00:00Z,26.5545,-82.1715,1.993,6.57,1111122 
SCCF RECON,ioos:station:SCCF:51:1,2009-01-09T03:00:00Z,26.5545,-82.1715,2.002,6.6,1111122 
SCCF RECON,ioos:station:SCCF:51:1,2009-01-09T04:00:00Z,26.5545,-82.1715,1.99,6.59,1111122 
SCCF RECON,ioos:station:SCCF:51:1,2009-01-09T05:00:00Z,26.5545,-82.1715,1.92,6.58,1111122 
SCCF RECON,ioos:station:SCCF:51:1,2009-01-09T06:00:00Z,26.5545,-82.1715,1.8,6.94,1111122 
SCCF RECON,ioos:station:SCCF:51:1,2009-01-09T07:00:00Z,26.5545,-82.1715,1.65,6.7,1111122 
SCCF RECON,ioos:station:SCCF:51:1,2009-01-09T08:00:00Z,26.5545,-82.1715,1.51,6.7,1111122 
SCCF RECON,ioos:station:SCCF:51:1,2009-01-09T09:00:00Z,26.5545,-82.1715,1.37,6.62,1111122 
SCCF RECON,ioos:station:SCCF:51:1,2009-01-09T10:00:00Z,26.5545,-82.1715,1.25,6.34,1111122 
SCCF RECON,ioos:station:SCCF:51:1,2009-01-09T11:00:00Z,26.5545,-82.1715,1.15,6.48,1111122 
SCCF RECON,ioos:station:SCCF:51:1,2009-01-09T12:00:00Z,26.5545,-82.1715,1.096,6.26,1111122 
SCCF RECON,ioos:station:SCCF:51:1,2009-01-09T13:00:00Z,26.5545,-82.1715,1.17,6.3,1111122 
SCCF RECON,ioos:station:SCCF:51:1,2009-01-09T14:00:00Z,26.5545,-82.1715,1.297,6.34,1111122 
SCCF RECON,ioos:station:SCCF:51:1,2009-01-09T15:00:00Z,26.5545,-82.1715,1.447,6.46,1111122 
SCCF RECON,ioos:station:SCCF:51:1,2009-01-09T16:00:00Z,26.5545,-82.1715,1.561,6.57,1111122 
SCCF RECON,ioos:station:SCCF:51:1,2009-01-09T17:00:00Z,26.5545,-82.1715,1.647,6.64,1111122 
SCCF RECON,ioos:station:SCCF:51:1,2009-01-09T18:00:00Z,26.5545,-82.1715,1.686,6.65,1111122 
SCCF RECON,ioos:station:SCCF:51:1,2009-01-09T19:00:00Z,26.5545,-82.1715,1.67,6.85,1111122 
SCCF RECON,ioos:station:SCCF:51:1,2009-01-09T20:00:00Z,26.5545,-82.1715,1.636,7.11,1111122 
SCCF RECON,ioos:station:SCCF:51:1,2009-01-09T21:00:00Z,26.5545,-82.1715,1.627,7.2,1111122 
SCCF RECON,ioos:station:SCCF:51:1,2009-01-09T22:00:00Z,26.5545,-82.1715,1.671,7.28,1111122 
SCCF RECON,ioos:station:SCCF:51:1,2009-01-09T23:00:00Z,26.5545,-82.1715,1.74,7.2,1111122 
SCCF RECON,ioos:station:SCCF:51:1,2009-01-10T00:00:00Z,26.5545,-82.1715,1.817,7.16,1111122 
SCCF RECON,ioos:station:SCCF:51:1,2009-01-10T01:00:00Z,26.5545,-82.1715,1.91,6.77,1111122 
SCCF RECON,ioos:station:SCCF:51:1,2009-01-10T02:00:00Z,26.5545,-82.1715,2.007,6.58,1111122 
SCCF RECON,ioos:station:SCCF:51:1,2009-01-10T03:00:00Z,26.5545,-82.1715,2.082,6.52,1111122 
SCCF RECON,ioos:station:SCCF:51:1,2009-01-10T04:00:00Z,26.5545,-82.1715,2.107,6.52,1111122 
SCCF RECON,ioos:station:SCCF:51:1,2009-01-10T05:00:00Z,26.5545,-82.1715,2.064,6.64,1111122 
SCCF RECON,ioos:station:SCCF:51:1,2009-01-10T06:00:00Z,26.5545,-82.1715,1.981,6.78,1111122 
SCCF RECON,ioos:station:SCCF:51:1,2009-01-10T07:00:00Z,26.5545,-82.1715,1.863,6.86,1111122 
SCCF RECON,ioos:station:SCCF:51:1,2009-01-10T08:00:00Z,26.5545,-82.1715,1.711,6.84,1111122 
SCCF RECON,ioos:station:SCCF:51:1,2009-01-10T09:00:00Z,26.5545,-82.1715,1.558,6.81,1111122 
SCCF RECON,ioos:station:SCCF:51:1,2009-01-10T10:00:00Z,26.5545,-82.1715,1.42,6.77,1111122 
SCCF RECON,ioos:station:SCCF:51:1,2009-01-10T11:00:00Z,26.5545,-82.1715,1.292,6.63,1111122 
SCCF RECON,ioos:station:SCCF:51:1,2009-01-10T12:00:00Z,26.5545,-82.1715,1.192,6.65,1111122 
SCCF RECON,ioos:station:SCCF:51:1,2009-01-10T13:00:00Z,26.5545,-82.1715,1.182,6.59,1111122 
SCCF RECON,ioos:station:SCCF:51:1,2009-01-10T14:00:00Z,26.5545,-82.1715,1.28,6.61,1111122 
SCCF RECON,ioos:station:SCCF:51:1,2009-01-10T15:00:00Z,26.5545,-82.1715,1.424,6.7,1111122 
SCCF RECON,ioos:station:SCCF:51:1,2009-01-10T16:00:00Z,26.5545,-82.1715,1.561,6.69,1111122 
SCCF RECON,ioos:station:SCCF:51:1,2009-01-10T17:00:00Z,26.5545,-82.1715,1.66,6.76,1111122 
SCCF RECON,ioos:station:SCCF:51:1,2009-01-10T18:00:00Z,26.5545,-82.1715,1.723,6.84,1111122 
SCCF RECON,ioos:station:SCCF:51:1,2009-01-10T19:00:00Z,26.5545,-82.1715,1.741,7.02,1111122 
SCCF RECON,ioos:station:SCCF:51:1,2009-01-10T20:00:00Z,26.5545,-82.1715,1.718,7.17,1111122 
SCCF RECON,ioos:station:SCCF:51:1,2009-01-10T21:00:00Z,26.5545,-82.1715,1.683,7.22,1111122 
SCCF RECON,ioos:station:SCCF:51:1,2009-01-10T22:00:00Z,26.5545,-82.1715,1.688,7.27,1111122 
SCCF RECON,ioos:station:SCCF:51:1,2009-01-10T23:00:00Z,26.5545,-82.1715,1.733,7.39,1111122 
SCCF RECON,ioos:station:SCCF:51:1,2009-01-11T00:00:00Z,26.5545,-82.1715,1.799,7.34,1111122 
SCCF RECON,ioos:station:SCCF:51:1,2009-01-11T01:00:00Z,26.5545,-82.1715,1.87,7.36,1111122 
SCCF RECON,ioos:station:SCCF:51:1,2009-01-11T02:00:00Z,26.5545,-82.1715,1.97,6.82,1111122 
SCCF RECON,ioos:station:SCCF:51:1,2009-01-11T03:00:00Z,26.5545,-82.1715,2.07,6.75,1111122 
SCCF RECON,ioos:station:SCCF:51:1,2009-01-11T04:00:00Z,26.5545,-82.1715,2.15,6.7,1111122 
SCCF RECON,ioos:station:SCCF:51:1,2009-01-11T05:00:00Z,26.5545,-82.1715,2.186,6.61,1111122 
SCCF RECON,ioos:station:SCCF:51:1,2009-01-11T06:00:00Z,26.5545,-82.1715,2.14,6.66,1111122 
SCCF RECON,ioos:station:SCCF:51:1,2009-01-11T07:00:00Z,26.5545,-82.1715,2.031,6.81,1111122 
SCCF RECON,ioos:station:SCCF:51:1,2009-01-11T08:00:00Z,26.5545,-82.1715,1.88,6.83,1111122 
SCCF RECON,ioos:station:SCCF:51:1,2009-01-11T09:00:00Z,26.5545,-82.1715,1.72,6.83,1111122 
SCCF RECON,ioos:station:SCCF:51:1,2009-01-11T10:00:00Z,26.5545,-82.1715,1.56,6.68,1111122 
SCCF RECON,ioos:station:SCCF:51:1,2009-01-11T11:00:00Z,26.5545,-82.1715,1.418,6.24,1111122 
SCCF RECON,ioos:station:SCCF:51:1,2009-01-11T12:00:00Z,26.5545,-82.1715,1.29,6.44,1111122 
SCCF RECON,ioos:station:SCCF:51:1,2009-01-11T13:00:00Z,26.5545,-82.1715,1.208,6.87,1111122 
SCCF RECON,ioos:station:SCCF:51:1,2009-01-11T14:00:00Z,26.5545,-82.1715,1.217,6.88,1111122 
SCCF RECON,ioos:station:SCCF:51:1,2009-01-11T15:00:00Z,26.5545,-82.1715,1.32,7.11,1111122 
SCCF RECON,ioos:station:SCCF:51:1,2009-01-11T16:00:00Z,26.5545,-82.1715,1.483,6.83,1111122 
SCCF RECON,ioos:station:SCCF:51:1,2009-01-11T17:00:00Z,26.5545,-82.1715,1.608,6.9,1111122 
SCCF RECON,ioos:station:SCCF:51:1,2009-01-11T18:00:00Z,26.5545,-82.1715,1.7,7.02,1111122 
SCCF RECON,ioos:station:SCCF:51:1,2009-01-11T19:00:00Z,26.5545,-82.1715,1.759,7.19,1111122 